Pleasanton, CA

3:11 PM PDT on October 01, 2016 (GMT -0700)
Livermore Municipal

Weather History for KLVK - October, 2014

Change the Weather History Date:

Saturday, October 11, 2014

  Actual Average Record
Temperature  
Mean Temperature 71 °F 64 °F  
Max Temperature 88 °F 78 °F 97 °F (1958)
Min Temperature 53 °F 51 °F 39 °F (1973)
Degree Days  
Heating Degree Days 0 2  
Month to date heating degree days 0 19  
Since 1 July heating degree days 0 43  
Cooling Degree Days 6 2  
Month to date cooling degree days 92 26  
Year to date cooling degree days 1238 815  
Growing Degree Days 20 (Base 50)    
Moisture  
Dew Point 51 °F    
Average Humidity 60    
Maximum Humidity 93    
Minimum Humidity 26    
Precipitation  
Precipitation 0.00 in 0.02 in 0.70 in (1972)
Month to date precipitation 0.00 0.20  
Year to date precipitation 5.09 10.33  
Since 1 July precipitation 0.21  
Sea Level Pressure  
Sea Level Pressure 30.00 in    
Wind  
Wind Speed 3 mph (West)    
Max Wind Speed 15 mph    
Max Gust Speed 17 mph    
Visibility 10 miles    
Events      
T = Trace of Precipitation, MM = Missing Value Source: NWS Daily Summary

Daily Weather History Graph

Daily Weather History Graph

Search for Another Location

Airport or City:

Trip Planner

Search our weather history database for the weather conditions in past years. The results will help you decide how hot, cold, wet, or windy it might be!

Date:

Astronomy

Oct. 11, 2014 Rise Set
Actual Time 7:11 AM PDT 6:35 PM PDT
Civil Twilight 6:45 AM PDT 7:01 PM PDT
Nautical Twilight 6:15 AM PDT 7:31 PM PDT
Astronomical Twilight 5:44 AM PDT 8:02 PM PDT
Moon 9:10 PM PDT (10/11) 10:37 AM PDT (10/11)
Length of Visible Light 12h 16m
Length of Day
11h 23m
Waning Gibbous, 86% of the Moon is Illuminated
Oct 11
Waning Gibbous
Oct 15
Last Quarter
Oct 23
New
Oct 30
First Quarter
Nov 6
Full

Hourly Weather History & Observations

Time (PDT) Temp. Dew Point Humidity Pressure Visibility Wind Dir Wind Speed Gust Speed Precip Events Conditions
12:53 AM 55.9 °F 52.0 °F 87% 30.01 in 10.0 mi Calm Calm - N/A   Clear
1:53 AM 55.9 °F 53.1 °F 90% 30.01 in 10.0 mi West 3.5 mph - N/A   Clear
2:53 AM 55.9 °F 52.0 °F 87% 30.01 in 10.0 mi Calm Calm - N/A   Clear
3:53 AM 55.0 °F 52.0 °F 89% 30.01 in 10.0 mi WNW 3.5 mph - N/A   Clear
4:53 AM 55.0 °F 53.1 °F 93% 30.01 in 10.0 mi WNW 3.5 mph - N/A   Clear
5:53 AM 55.0 °F 52.0 °F 89% 30.02 in 10.0 mi Calm Calm - N/A   Clear
6:53 AM 54.0 °F 51.1 °F 90% 30.03 in 10.0 mi Calm Calm - N/A   Clear
7:49 AM 53.6 °F 51.8 °F 94% 30.05 in 10.0 mi SSE 3.5 mph - N/A   Scattered Clouds
7:53 AM 54.0 °F 51.1 °F 90% 30.05 in 10.0 mi SE 3.5 mph - N/A   Scattered Clouds
8:13 AM 55.4 °F 51.8 °F 88% 30.05 in 10.0 mi ESE 3.5 mph - N/A   Overcast
8:53 AM 57.0 °F 53.1 °F 87% 30.06 in 10.0 mi Calm Calm - N/A   Mostly Cloudy
9:06 AM 57.2 °F 53.6 °F 88% 30.06 in 10.0 mi Calm Calm - N/A   Scattered Clouds
9:53 AM 61.0 °F 53.1 °F 75% 30.06 in 10.0 mi Calm Calm - N/A   Scattered Clouds
10:53 AM 64.9 °F 53.1 °F 65% 30.05 in 10.0 mi Variable 3.5 mph - N/A   Clear
11:53 AM 69.1 °F 51.1 °F 53% 30.04 in 10.0 mi Calm Calm - N/A   Clear
12:53 PM 77.0 °F 46.9 °F 34% 30.01 in 10.0 mi Calm Calm - N/A   Clear
1:53 PM 81.0 °F 50.0 °F 34% 29.98 in 10.0 mi South 3.5 mph - N/A   Clear
2:53 PM 84.9 °F 50.0 °F 30% 29.95 in 10.0 mi Variable 4.6 mph - N/A   Clear
3:53 PM 88.0 °F 48.0 °F 25% 29.94 in 10.0 mi WSW 6.9 mph - N/A   Clear
4:53 PM 84.9 °F 50.0 °F 30% 29.94 in 10.0 mi West 12.7 mph - N/A   Clear
5:53 PM 81.0 °F 50.0 °F 34% 29.94 in 10.0 mi WNW 10.4 mph - N/A   Clear
6:53 PM 75.9 °F 46.9 °F 36% 29.94 in 10.0 mi WNW 5.8 mph - N/A   Clear
7:53 PM 71.1 °F 48.9 °F 45% 29.96 in 10.0 mi Calm Calm - N/A   Clear
8:53 PM 71.1 °F 50.0 °F 47% 29.96 in 10.0 mi Calm Calm - N/A   Clear
9:53 PM 66.9 °F 48.0 °F 51% 29.97 in 10.0 mi Calm Calm - N/A   Clear
10:53 PM 64.0 °F 46.9 °F 54% 29.97 in 10.0 mi NE 3.5 mph - N/A   Clear
11:53 PM 62.1 °F 46.0 °F 56% 29.97 in 10.0 mi Calm Calm - N/A   Clear